FW1255 Weather Reports


time (UTC)temp
F
wind
direction
speed
knots
gust
knots
rain 1hr
in
rain 24hr
in
rain mn
in
humidity
%
barometer
mb
20260906183033 66 355 1.7 4.3 0.28 1.74 1.74 97 1016.3
20260906181527 66 360 3.5 9.6 0.28 1.73 1.73 97 1017.9
20260906180051 67 360 0.0 7.0 0.18 1.62 1.62 97 1017.1
20260906174524 66 360 7.8 13.0 0.14 1.57 1.57 97 1015.3
20260906173024 66 360 3.5 7.0 0.22 1.45 1.45 97 1017.3
20260906171521 66 360 7.0 13.0 0.67 1.45 1.45 96 1015.2
20260906170020 66 360 1.7 9.6 1.28 1.44 1.44 97 1015.6
20260906164520 66 360 4.3 13.9 1.42 1.42 1.42 96 1016.0
20260906163019 66 360 11.3 23.5 1.21 1.21 1.21 96 1015.7
20260906161519 66 360 14.8 25.2 0.76 0.76 0.76 94 1015.2
20260906160011 72 360 12.2 20.0 0.14 0.14 0.14 96 1015.3
20260906154508 74 360 3.5 9.6 0.00 0.06 0.00 96 1014.8
20260906153006 74 360 3.5 7.0 0.00 0.06 0.00 97 1014.4
20260906151504 74 360 5.2 8.7 0.00 0.06 0.00 97 1014.0
20260906150003 73 360 4.3 9.6 0.00 0.06 0.00 97 1013.9
20260906144503 73 133 2.6 7.8 0.00 0.16 0.00 97 1014.1
20260906143112 73 140 3.5 7.8 0.00 0.16 0.00 98 1014.4
20260906141559 72 154 4.3 7.8 0.00 0.16 0.00 97 1014.5
20260906140059 72 360 4.3 9.6 0.00 0.16 0.00 98 1014.5
20260906134554 72 133 4.3 9.6 0.00 0.38 0.00 98 1014.4
20260906133052 72 134 4.3 9.6 0.00 0.38 0.00 98 1014.2
20260906131549 72 360 3.5 9.6 0.00 0.38 0.00 98 1014.2
20260906130047 72 128 2.6 9.6 0.00 0.38 0.00 98 1014.3
20260906124544 71 360 4.3 7.8 0.00 0.38 0.00 98 1014.3
20260906123041 71 360 3.5 8.7 0.00 0.38 0.00 98 1014.2
20260906121537 71 134 3.5 7.0 0.00 0.38 0.00 98 1014.2
20260906120035 71 360 3.5 7.8 0.00 0.38 0.00 98 1013.9
20260906114534 71 360 4.3 8.7 0.00 0.38 0.00 98 1013.7
20260906113035 71 360 4.3 10.4 0.00 0.38 0.00 97 1013.6
20260906111532 71 360 2.6 9.6 0.00 0.38 0.00 97 1013.5
20260906110032 71 360 3.5 7.8 0.00 0.38 0.00 97 1013.5
20260906104536 71 360 3.5 8.7 0.00 0.38 0.00 97 1013.5
20260906103029 71 360 2.6 7.8 0.00 0.38 0.00 97 1013.6
20260906101528 71 360 3.5 8.7 0.00 0.38 0.00 97 1013.8
20260906100027 72 138 4.3 8.7 0.00 0.38 0.00 97 1013.7
20260906094535 72 360 3.5 8.7 0.00 0.38 0.00 97 1013.7
20260906093034 72 360 2.6 8.7 0.00 0.38 0.00 97 1013.6
20260906091522 72 360 3.5 7.8 0.00 0.38 0.00 97 1013.6
20260906090022 72 360 3.5 7.8 0.00 0.38 0.00 97 1013.4
20260906084532 72 360 2.6 7.0 0.00 0.38 0.00 97 1013.4
20260906083022 72 360 2.6 7.8 0.00 0.38 0.00 97 1013.1
20260906081519 72 360 3.5 7.0 0.00 0.38 0.00 97 1013.1
20260906080027 72 360 2.6 7.8 0.00 0.38 0.00 97 1013.3
20260906074516 72 360 3.5 7.8 0.00 0.38 0.00 97 1013.2
20260906073015 72 360 3.5 7.8 0.00 0.38 0.00 97 1013.0
20260906071512 73 360 2.6 7.8 0.00 0.38 0.00 97 1013.2
20260906070012 73 360 2.6 7.8 0.00 0.38 0.00 97 1013.3
20260906064612 73 360 3.5 8.7 0.00 0.38 0.00 96 1013.3
20260906063010 73 360 3.5 7.8 0.00 0.38 0.00 97 1013.5
20260906061507 73 360 3.5 7.8 0.00 0.38 0.00 97 1013.4
20260906060008 73 360 2.6 7.0 0.00 0.38 0.00 96 1013.3
20260906054507 73 360 2.6 7.0 0.00 0.38 0.00 96 1013.3
20260906053004 73 360 1.7 3.5 0.00 0.38 0.00 96 1013.1
20260906051501 73 360 0.9 4.3 0.00 0.38 0.00 95 1013.2
20260906050057 74 360 0.9 4.3 0.00 0.38 0.00 95 1013.2
20260906044556 74 360 1.7 5.2 0.00 0.38 0.38 95 1013.3
20260906043056 74 360 1.7 4.3 0.00 0.38 0.38 95 1013.3
20260906041557 74 111 1.7 5.2 0.00 0.38 0.38 95 1013.1
20260906040055 75 360 0.9 3.5 0.00 0.38 0.38 95 1013.0
20260906034555 75 360 1.7 4.3 0.00 0.38 0.38 94 1012.9
20260906033054 75 360 0.9 7.0 0.00 0.38 0.38 94 1012.9
20260906031554 76 360 3.5 7.0 0.00 0.38 0.38 94 1013.1
20260906030053 76 360 2.6 7.8 0.00 0.38 0.38 94 1013.1
20260906024602 76 360 1.7 7.0 0.00 0.38 0.38 93 1013.0
20260906023052 76 360 3.5 7.8 0.00 0.38 0.38 93 1013.0
20260906021551 75 360 2.6 5.2 0.00 0.38 0.38 92 1012.7
20260906020051 76 360 1.7 4.3 0.00 0.38 0.38 91 1012.8
20260906014602 77 360 0.9 5.2 0.00 0.38 0.38 90 1012.6
20260906013049 77 360 0.9 5.2 0.00 0.38 0.38 90 1012.5
20260906011548 77 360 0.0 5.2 0.00 0.38 0.38 90 1012.3
20260906010047 77 360 1.7 3.5 0.00 0.38 0.38 89 1012.2
20260906004547 77 360 0.0 2.6 0.00 0.38 0.38 88 1012.0
20260906003102 78 360 0.9 3.5 0.00 0.38 0.38 87 1012.1
20260906001548 79 360 1.7 4.3 0.00 0.38 0.38 86 1012.1
20260906000045 80 360 1.7 5.2 0.00 0.38 0.38 85 1012.3
20260905234544 80 360 1.7 7.8 0.00 0.38 0.38 84 1012.2
20260905233044 81 360 4.3 9.6 0.00 0.38 0.38 82 1012.0
20260905231544 81 360 3.5 10.4 0.00 0.38 0.38 81 1011.9
20260905230042 82 360 4.3 7.8 0.00 0.38 0.38 79 1012.0
20260905224542 82 360 4.3 9.6 0.00 0.38 0.38 78 1011.9
20260905223042 82 360 5.2 10.4 0.00 0.38 0.38 78 1011.8
20260905221544 82 360 6.1 10.4 0.00 0.38 0.38 77 1011.7
20260905220044 82 360 6.1 9.6 0.00 0.38 0.38 78 1011.5
20260905214539 81 360 6.1 13.9 0.00 0.38 0.38 75 1011.3
20260905213041 82 360 5.2 10.4 0.00 0.38 0.38 78 1011.3
20260905211542 81 360 5.2 10.4 0.00 0.38 0.38 78 1011.2
20260905210037 81 360 4.3 9.6 0.00 0.38 0.38 80 1011.0
20260905204641 81 360 5.2 9.6 0.00 0.38 0.38 78 1011.1
20260905203036 81 360 5.2 9.6 0.00 0.38 0.38 78 1011.1
20260905201540 82 360 5.2 8.7 0.00 0.38 0.38 77 1011.0
20260905200045 81 360 2.6 7.8 0.00 0.38 0.38 75 1010.9
20260905194541 81 360 4.3 9.6 0.00 0.38 0.38 75 1010.9
20260905193034 82 360 4.3 10.4 0.00 0.38 0.38 82 1011.1
20260905191533 83 360 4.3 8.7 0.00 0.38 0.38 74 1010.9
20260905190034 81 360 0.9 4.3 0.00 0.38 0.38 77 1011.0
20260905184523 80 116 1.7 3.5 0.00 0.38 0.38 80 1011.0